Wolf Point, MT

1:37 AM MST on February 25, 2017 (GMT -0700)
Clayton

Weather History for KOLF - December, 2012

Change the Weather History Date:

Thursday, December 27, 2012

  Actual Average Record
Temperature  
Mean Temperature -2 °F -  
Max Temperature 8 °F 24 °F 46 °F (1999)
Min Temperature -12 °F 1 °F -18 °F (2008)
Degree Days  
Heating Degree Days 67    
Cooling Degree Days 0    
Moisture  
Dew Point -7 °F    
Average Humidity 84    
Maximum Humidity 92    
Minimum Humidity 72    
Precipitation  
Precipitation T in 0.01 in 0.04 in (2000)
Month to date precipitation 0.05 0.25  
Year to date precipitation 10.20 12.13  
Sea Level Pressure  
Sea Level Pressure 30.09 in    
Wind  
Wind Speed 2 mph (West)    
Max Wind Speed 7 mph    
Max Gust Speed -    
Visibility 6 miles    
Events Fog , Snow    
T = Trace of Precipitation, MM = Missing Value Source: NWS Daily Summary

Daily Weather History Graph

Daily Weather History Graph

Search for Another Location

Airport or City:

Trip Planner

Search our weather history database for the weather conditions in past years. The results will help you decide how hot, cold, wet, or windy it might be!

Date:

Astronomy

Dec. 27, 2012 Rise Set
Actual Time 7:52 AM MST 4:15 PM MST
Civil Twilight 7:15 AM MST 4:51 PM MST
Nautical Twilight 6:35 AM MST 5:31 PM MST
Astronomical Twilight 5:58 AM MST 6:09 PM MST
Moon 4:03 PM MST (12/27) 7:02 AM MST (12/27)
Length of Visible Light 9h 36m
Length of Day
8h 23m
Full, 100% of the Moon is Illuminated
Dec 27
Full
Dec 28
Full
Jan 4
Last Quarter
Jan 11
New
Jan 18
First Quarter

Hourly Weather History & Observations

Time (MST) Temp. Windchill Dew Point Humidity Pressure Visibility Wind Dir Wind Speed Gust Speed Precip Events Conditions
12:53 AM -5.1 °F -19.1 °F -8.0 °F 87% 30.17 in 10.0 mi East 6.9 mph - N/A   Clear
1:53 AM -8.0 °F -16.9 °F -11.0 °F 86% 30.18 in 10.0 mi ENE 3.5 mph - N/A   Clear
2:53 AM -9.0 °F - -13.0 °F 83% 30.19 in 10.0 mi Calm Calm - N/A   Overcast
3:43 AM -7.6 °F - -11.2 °F 84% 30.00 in 10.0 mi Calm Calm - N/A   Overcast
3:53 AM -8.0 °F - -11.9 °F 83% 30.18 in 10.0 mi Calm Calm - N/A   Overcast
4:49 AM -5.8 °F - -9.4 °F 84% 30.00 in 7.0 mi Calm Calm - N/A   Overcast
4:53 AM -5.1 °F - -8.0 °F 87% 30.17 in 7.0 mi Calm Calm - N/A   Overcast
5:41 AM -5.8 °F -14.5 °F -9.4 °F 84% 30.01 in 7.0 mi WSW 3.5 mph - N/A   Overcast
5:53 AM -4.0 °F -12.4 °F -8.0 °F 83% 30.18 in 6.0 mi WSW 3.5 mph - N/A   Overcast
6:53 AM -0.9 °F - -5.1 °F 83% 30.17 in 7.0 mi Calm Calm - N/A   Overcast
7:53 AM -0.9 °F - -4.0 °F 87% 30.18 in 8.0 mi Calm Calm - N/A   Overcast
8:16 AM -0.4 °F -8.3 °F -5.8 °F 78% 30.02 in 6.0 mi West 3.5 mph - N/A   Overcast
8:48 AM -0.4 °F - -4.0 °F 85% 30.03 in 2.5 mi Calm Calm - N/A   Overcast
8:53 AM -0.0 °F -7.9 °F -2.9 °F 88% 30.19 in 3.0 mi WSW 3.5 mph - N/A   Overcast
9:28 AM 1.4 °F - -0.4 °F 92% 30.03 in 2.5 mi Calm Calm - 0.00 in Snow Light Snow
9:53 AM 1.0 °F - -0.9 °F 91% 30.19 in 2.0 mi Calm Calm - 0.00 in   Overcast
10:46 AM 3.2 °F -4.2 °F -0.4 °F 85% 30.03 in 2.5 mi West 3.5 mph - 0.00 in   Overcast
10:53 AM 3.9 °F -3.4 °F -0.0 °F 84% 30.18 in 2.5 mi West 3.5 mph - 0.00 in   Overcast
11:02 AM 3.2 °F -4.2 °F -0.4 °F 85% 30.03 in 3.0 mi West 3.5 mph - N/A   Haze
11:25 AM 3.2 °F -4.2 °F -0.4 °F 85% 30.02 in 2.5 mi West 3.5 mph - N/A   Haze
11:38 AM 3.2 °F -4.2 °F -0.4 °F 85% 30.02 in 3.0 mi West 3.5 mph - N/A   Overcast
11:53 AM 3.0 °F -4.4 °F -0.9 °F 84% 30.18 in 3.0 mi West 3.5 mph - N/A   Overcast
12:39 PM 6.8 °F - -0.4 °F 72% 30.01 in 4.0 mi Calm Calm - N/A   Haze
12:53 PM 6.1 °F - 1.0 °F 80% 30.16 in 8.0 mi Calm Calm - N/A   Mostly Cloudy
1:50 PM 6.8 °F - 1.4 °F 79% 30.00 in 8.0 mi Calm Calm - N/A   Mostly Cloudy
1:53 PM 6.8 °F - 1.4 °F 79% 30.00 in 8.0 mi Calm Calm - N/A   Mostly Cloudy
2:53 PM 5.0 °F - -0.0 °F 80% 30.17 in 9.0 mi Calm Calm - N/A   Clear
3:53 PM 1.0 °F - -2.9 °F 83% 30.18 in 10.0 mi Calm Calm - N/A   Clear
4:53 PM -0.9 °F - -4.0 °F 87% 30.18 in 10.0 mi Calm Calm - N/A   Clear
5:53 PM -8.0 °F - -11.0 °F 86% 30.19 in 10.0 mi Calm Calm - N/A   Clear
6:42 PM -11.2 °F -20.6 °F -14.8 °F 84% 30.02 in 10.0 mi NNW 3.5 mph - N/A   Scattered Clouds
6:50 PM -11.2 °F - -16.6 °F 77% 30.02 in 10.0 mi Calm Calm - N/A   Mostly Cloudy
6:53 PM -11.9 °F - -15.0 °F 86% 30.21 in 10.0 mi Calm Calm - N/A   Scattered Clouds
7:53 PM -11.2 °F -23.0 °F -14.8 °F 84% 30.02 in 10.0 mi WNW 4.6 mph - N/A   Partly Cloudy
8:27 PM -11.2 °F - -14.8 °F 84% 30.02 in 9.0 mi Calm Calm - N/A   Mostly Cloudy
8:39 PM -11.2 °F -20.6 °F -14.8 °F 84% 30.02 in 3.0 mi West 3.5 mph - N/A   Overcast
8:41 PM -11.2 °F - -14.8 °F 84% 30.02 in 1.0 mi Calm Calm - N/A   Overcast
8:48 PM -9.4 °F -18.6 °F -14.8 °F 77% 30.02 in 0.8 mi WNW 3.5 mph - N/A   Haze
8:50 PM -9.4 °F -18.6 °F -14.8 °F 77% 30.02 in 1.5 mi WNW 3.5 mph - N/A   Haze
8:53 PM -9.0 °F - -14.1 °F 79% 30.20 in 7.0 mi Calm Calm - N/A   Overcast
9:40 PM -5.8 °F - -7.6 °F 92% 30.01 in 1.8 mi Calm Calm - N/A   Overcast
9:49 PM -5.8 °F - -7.6 °F 92% 30.01 in 3.0 mi Calm Calm - N/A   Overcast
9:53 PM -5.1 °F - -8.0 °F 87% 30.18 in 5.0 mi Calm Calm - N/A   Overcast
10:10 PM -5.8 °F - -9.4 °F 84% 30.01 in 9.0 mi Calm Calm - N/A   Overcast
10:53 PM -5.1 °F - -8.0 °F 87% 30.17 in 9.0 mi Calm Calm - N/A   Overcast
11:19 PM -4.0 °F - -5.8 °F 92% 30.01 in 1.8 mi Calm Calm - N/A   Overcast
11:27 PM -2.2 °F -10.4 °F -5.8 °F 85% 30.00 in 0.8 mi East 3.5 mph - N/A   Mist
11:53 PM -2.0 °F - -5.1 °F 87% 30.15 in 0.2 mi Calm Calm - N/A Fog Light Freezing Fog